Regional Weather Roundup
Issued by NWS

Home | Current Version | Previous Version | Graphics & Text | Print | Product List | Glossary On
Versions: 1 2 3 4 5 6 7 8 9 10 11 12 13 14 15 16 17 18 19 20 21 22 23 24 25 26 27 28 29 30 31 32 33 34 35 36 37 38 39 40 41 42 43 44 45 46 47 48 49 50
000
ASUS43 KMPX 300301
RWRMN
WEATHER ROUNDUP FOR MINNESOTA
NATIONAL WEATHER SERVICE TWIN CITIES/CHANHASSEN MN
1000 PM CDT MON SEP 29 2014


NOTE: "FAIR" INDICATES FEW OR NO CLOUDS BELOW 12,000 FEET WITH NO
SIGNIFICANT WEATHER AND/OR OBSTRUCTIONS TO VISIBILITY. N/A MEANS
CURRENT SKY AND/OR WEATHER CONDITIONS ARE NOT AVAILABLE.

MNZ060>063-068>070-300400-
   Twin Cities Metro

CITY           SKY/WX    TMP DP  RH WIND       PRES   REMARKS
TWIN CITIES    CLEAR     49  42  77 NE10      30.11S
ST PAUL        CLEAR     48  43  82 NE8       30.13R
CRYSTAL        CLEAR     48  41  76 NE7       30.11S
BLAINE         CLEAR     46  45  93 NE6       30.12S
LAKEVILLE      CLEAR     46  43  87 NE6       30.10S
EDEN PRAIRIE   CLEAR     49  44  83 NE12      30.09S
SOUTH ST PAUL  CLEAR     49  42  75 NE7       30.11S
LAKE ELMO      FAIR      46  43  87 NE12      30.12S
$$
MNZ001>005-007-008-013>017-022>024-027-028-300400-
   Northwest Minnesota

CITY           SKY/WX    TMP DP  RH WIND       PRES   REMARKS
BEMIDJI        PTCLDY    46  42  86 SE8       30.12F
HALLOCK        CLEAR     48  45  87 E9        30.09F
ROSEAU         CLEAR     46  43  87 SE8       30.13S
WARROAD        CLEAR     45  41  87 SE9       30.15S
THIEF RVR FALL CLEAR     46  43  87 E9        30.10F
CROOKSTON      CLEAR     50  46  87 E9        30.09F
FOSSTON        CLEAR     41  39  93 CALM      30.12S
DETROIT LAKES  CLEAR     46  43  87 SE7       30.10F
PARK RAPIDS    CLOUDY    48  42  80 SE12      30.12F
MAHNOMEN       FAIR      46  43  87 E5        30.09F
$$
MNZ006-009>011-018-025>026-300400-
   North Central Minnesota

CITY           SKY/WX    TMP DP  RH WIND       PRES   REMARKS
BAUDETTE       CLEAR     41  39  93 E8        30.16F
FLAG ISLAND    CLOUDY    48  43  81 SE8       30.13F
INTL FALLS     CLOUDY    43  40  89 SE5       30.19S
WASKISH        CLEAR     43  39  87 CALM      30.15S
BIG FORK       CLOUDY    46  41  81 E6        30.17F
LONGVILLE      CLOUDY    48  43  81 E5        30.14S
GRAND RAPIDS   CLOUDY    46  41  81 SE6       30.16S
CRANE LAKE     CLOUDY    43  39  87 CALM      30.22S
ORR            CLOUDY    43  37  81 CALM      30.16F
COOK           CLOUDY    45  39  81 E3        30.19F
WALKER         CLOUDY    48  42  80 SE7       30.13F
$$
MNZ012-019>021-037-300400-
   Northeast Minnesota

CITY           SKY/WX    TMP DP  RH WIND       PRES   REMARKS
DULUTH         CLOUDY    44  39  82 E9        30.18S
ELY            CLOUDY    45  37  76 NE5       30.20S
HIBBING        CLOUDY    46  41  82 S7        30.18S
EVELETH        CLOUDY    45  41  87 E3        30.19S
DULUTH HARBOR  CLOUDY    46  43  87 E14G20    30.20S
TWO HARBORS    CLOUDY    43  37  81 NE3       30.19R
SILVER BAY     PTCLDY    43  43 100 NE3       30.19S
GRAND MARAIS     N/A     44  37  76 NE7       30.23S
G MARAIS ARPRT CLOUDY    36  32  87 N6        30.21S
$$
MNZ029>031-032-039>041-046>048-054>057-064-300400-
   West Central Minnesota

CITY           SKY/WX    TMP DP  RH WIND       PRES   REMARKS
FERGUS FALLS   PTCLDY    50  43  76 SE9       30.08F
WHEATON        CLEAR     46  43  87 E6        30.08F
MORRIS         CLEAR     48  45  87 E7        30.07S
ALEXANDRIA     CLEAR     47  43  86 E13       30.10F
ELBOW LAKE     CLOUDY    50  46  86 E10       30.07F
WADENA         CLOUDY    48  43  81 E8        30.11S
GLENWOOD       CLEAR     46  45  93 E10       30.09F
APPLETON       CLEAR     52  46  82 E7        30.07S
BENSON         CLEAR     50  45  81 SE9       30.08F
ORTONVILLE     CLEAR     52  46  82 SE8       30.06S
MADISON        PTCLDY    54  48  82 E8        30.06F
WILLMAR        FAIR      50  45  81 E14       30.10S
$$
MNZ033>034-036-042>043-049>051-058-059-300400-
   Central Minnesota

CITY           SKY/WX    TMP DP  RH WIND       PRES   REMARKS
ST CLOUD       CLEAR     46  40  79 NE8       30.12F
SAUK CENTRE    FAIR      45  42  91 E10       30.11S
PAYNESVILLE    CLEAR     44  41  91 N8        30.11S
AITKIN         CLOUDY    46  39  76 E8        30.15S
PINE RIVER     CLOUDY    48  43  81 SE6       30.17S
BRAINERD       CLEAR     43  40  89 E5        30.15F
STAPLES        MOCLDY    46  43  87 E5        30.12F
LONG PRAIRIE     N/A     43  41  93 NE10      30.12S
LITTLE FALLS   CLEAR     43  37  81 E5        30.13F
LITCHFIELD     CLEAR     48  46  93 E8        30.10
BUFFALO        CLEAR     46  41  81 NE9G16    30.13R
MAPLE LAKE     CLEAR     47  43  88 E12G18    30.13S
$$
MNZ037-044-045-052-053-300400-
   East Central Minnesota

CITY           SKY/WX    TMP DP  RH WIND       PRES   REMARKS
PRINCETON      CLEAR     45  41  87 NE7       30.14F
MORA           CLOUDY    43  37  81 NE3       30.17S
CAMBRIDGE      CLOUDY    48  37  66 NE6       30.13S
RUSH CITY      MOCLDY    44  39  83 NE8       30.15S
MOOSE LAKE     CLOUDY    43  37  81 NE10      30.16S
HINCKLEY       CLOUDY    43  37  81 E12G17    30.16S
CLOQUET        CLOUDY    43  39  87 E7        30.17F
MCGREGOR       CLOUDY    43  39  87 E8        30.17S
$$
MNZ071>073-080-081-089-090-097-098-300400-
   Southwest Minnesota

CITY           SKY/WX    TMP DP  RH WIND       PRES   REMARKS
MONTEVIDEO     CLEAR     48  45  87 SE5       30.08F
GRANITE FALLS  CLEAR     50  46  87 E3        30.08F
CANBY          PTCLDY    51  47  86 E8        30.06F
MARSHALL       CLEAR     52  45  76 E9        30.05S
REDWOOD FALLS  CLEAR     51  47  86 E7        30.07F
OLIVIA         CLEAR     50  45  81 E6        30.07S
PIPESTONE      CLEAR     55  48  76 E13       30.02S
WINDOM         CLEAR     52  48  87 NE9       30.06F
WORTHINGTON    CLEAR     54  48  82 E12       30.05S
JACKSON        CLEAR     54  46  76 E9G16     30.06S
TRACY          CLEAR     52  48  87 E8        30.07S
SLAYTON        CLEAR     52  48  88 CALM      30.05F
$$
MNZ065>067-074>077-082>085-091>093-300400-
   South Central Minnesota

CITY           SKY/WX    TMP DP  RH WIND       PRES   REMARKS
MANKATO        CLEAR     54  43  66 E10       30.07F
NEW ULM        CLEAR     52  46  82 E7        30.08S
ST JAMES       CLEAR     52  48  87 CALM      30.08S
FAIRMONT       CLEAR     54  45  71 NE6       30.06S
GLENCOE        CLEAR     49  43  80 NE5       30.09S
FARIBAULT      CLEAR     52  43  71 NE6       30.09S
OWATONNA       CLEAR     48  45  87 NE7       30.07F
WASECA         CLEAR     50  43  76 NE7       30.08F
ALBERT LEA     CLEAR     52  48  87 E6        30.06S
$$
MNZ078>079-086>088-094>096-300400-
   Southeast Minnesota

CITY           SKY/WX    TMP DP  RH WIND       PRES   REMARKS
ROCHESTER      CLEAR     50  45  83 NE9       30.08F
RED WING       CLEAR     50  43  76 E6        30.09S
STANTON        CLEAR     49  44  84 NE7       30.08S
DODGE CENTER   CLEAR     52  46  82 NE7       30.07S
WINONA         CLEAR     54  46  76 E9        30.09S
AUSTIN         CLEAR     52  46  82 NE5       30.06S
PRESTON        CLEAR     49  46  91 NE7       30.07S
$$
ABBREVIATIONS USED IN REMARKS
   TC - TEMPERATURES IN CELSIUS
  WCI - WIND CHILL INDEX
   HX - HEAT INDEX
  VSB - VISIBILITY
$$


USA.gov is the U.S. government's official web portal to all federal, state and local government web resources and services.